Temp_Advection
nan nan nan nan nan nan nan nan nan nan nan nan nan nan nan nan nan nan nan nan nan nan nan nan nan nan nan nan nan nan nan nan nan nan nan nan nan nan nan nan nan nan nan nan nan nan nan
nan -0 -0 -0 -0 -1 -0 -1 -1 -0 -0 -0 -0 -0 -0 -0 -0 -0 -0 -0 0 -0 -0 -0 -0 -0 -0 -0 -0 -0 0 0 0 0 0 -0 -1 -3 -2 -0 -0 -0 -0 0 0 -0 nan
nan -0 -0 -0 -0 -1 -1 -0 -1 -1 -0 -0 -0 -0 -0 -0 0 -0 -0 -0 -0 -0 -0 -0 -0 -0 -0 0 0 -0 0 -0 0 -0 -0 0 0 -0 -2 -1 -1 -1 -0 0 0 0 nan
nan -0 -0 -0 -0 -0 -1 -1 -0 -1 -1 -0 -0 -0 -0 0 -0 -0 -0 -0 -0 -0 -0 -0 -0 -0 0 0 0 -0 0 -0 0 0 0 -0 -1 -1 -1 -1 -0 -1 -0 0 -0 0 nan
nan -0 -0 -0 0 -0 -1 -0 -0 -1 -1 -0 -0 -0 0 -0 -0 -0 0 -0 -0 -0 -0 -0 -0 -0 0 0 0 0 0 0 0 0 0 0 -0 -1 -0 -1 -0 -0 -0 -0 0 0 nan
nan -0 -0 0 -0 0 -0 -1 -1 -0 -0 -0 -0 -0 0 -0 -0 0 -0 -0 -0 -0 -0 -0 -0 -0 -0 0 0 0 0 0 0 0 -0 -0 -1 -1 -0 -0 -0 0 -0 -0 0 0 nan
nan -0 0 -0 -0 -0 -0 -1 -1 -1 -0 -1 -1 -0 -0 0 -0 0 0 -0 -0 -0 -0 -0 -0 -0 0 0 0 0 0 0 -0 -1 -0 -1 -1 0 -0 0 -0 -0 -0 -0 0 -0 nan
nan -0 -0 0 0 -0 -0 -0 -1 -1 -0 -0 -1 -1 -0 -0 0 0 0 -0 -0 0 -0 -0 0 0 0 0 -0 0 0 -0 -0 -0 -0 -0 0 0 -0 0 -0 -0 -0 0 0 0 nan
nan -0 -0 0 0 0 -0 -0 -0 -1 -1 -0 -1 -1 -0 0 0 -0 -1 -1 0 0 0 0 0 0 0 0 0 0 0 -0 -0 -0 -0 0 0 -0 -0 -0 -0 -0 -0 -0 0 -0 nan
nan -0 -0 -0 0 -0 0 -0 -0 -0 -0 -1 -1 -0 -0 1 0 -0 -2 0 0 -0 -0 -0 -0 0 0 -0 -0 0 0 -0 -0 -0 -0 0 0 -0 -0 0 -0 0 -0 -0 -0 -0 nan
nan -0 -0 -0 -0 0 0 -0 -0 0 -0 -1 -1 -1 0 0 0 -2 -1 0 0 1 0 0 0 0 0 0 -0 0 0 -0 -0 0 -0 0 0 -0 0 0 -0 -0 0 0 -0 -0 nan
nan -0 -0 -0 -0 -0 -0 -0 -0 0 -0 -0 -1 -1 -0 -1 -0 -2 1 0 1 -1 -1 0 0 0 0 0 0 0 0 -0 -1 -1 -0 0 0 -0 -0 -0 0 -0 -0 -1 -0 -0 nan
nan -0 -0 -0 -0 -0 -0 -0 0 0 -0 -0 -1 -0 -1 -1 0 1 1 1 -1 -0 -0 -0 0 0 0 0 0 0 0 -0 0 0 -0 -0 -0 -0 -0 -0 -0 -1 -1 -0 -0 -0 nan
nan -0 -0 -0 -0 -0 -0 -0 0 0 -0 -0 -0 -1 -2 -0 0 1 0 -0 0 -0 -0 0 -0 0 0 0 -0 -0 -0 0 -0 -0 -0 1 -0 -0 -0 -0 0 -0 -1 -1 -0 -0 nan
nan -0 -0 -0 -0 -0 -0 -0 0 0 0 -0 -1 -1 -1 0 0 1 1 -0 -1 -0 0 -0 0 0 0 0 0 0 -0 -0 0 -0 -1 0 -0 -0 0 -0 -0 0 -0 -0 -0 -0 nan
nan -0 -0 -0 -0 -0 -0 -0 0 0 0 0 -0 -1 -1 0 1 1 0 -0 -0 -0 0 -0 -0 0 0 0 -0 0 0 -0 -0 0 -0 0 1 -0 -0 -0 -1 -0 -0 -0 -0 0 nan
nan -0 -0 -0 -0 -0 -0 -0 0 0 0 0 -0 -0 -0 -0 0 0 -0 -0 -0 -0 -0 -0 -0 -0 -0 0 -0 -0 0 0 -0 -0 -1 -1 0 -0 0 0 0 -0 -0 -1 -0 -0 nan
nan -1 -1 -0 -0 -0 -0 -0 0 0 0 0 0 0 -0 0 1 -0 -0 -0 -0 -0 0 -0 -0 -0 -0 -0 -0 -0 -0 -0 -0 -1 -0 -0 -0 0 0 -0 -0 -0 -1 -0 0 0 nan
nan -1 -0 -0 -0 -0 -0 -0 0 0 0 0 -0 -0 0 1 -0 -0 0 -0 -0 0 0 -0 0 -0 -0 -0 0 0 -0 0 -0 -0 -1 -0 -0 0 -0 0 -0 0 -0 -1 -1 0 nan
nan -0 -0 0 -0 -0 -0 0 0 0 0 0 -0 0 -0 -0 -0 -1 -0 -0 0 -0 -0 -0 -0 -0 -0 -0 -0 0 0 0 0 0 -0 -1 -0 -0 -0 -0 -0 0 -0 -0 -1 -1 nan
nan -0 -0 -0 -0 -0 -0 0 -0 0 0 0 0 -0 0 0 -1 0 0 0 0 -0 -0 0 -0 -0 -0 0 0 0 0 0 0 0 -0 -0 -0 -0 -0 -0 -0 -0 -0 -0 -0 -1 nan
nan -0 -0 -0 -0 -0 -0 -0 -0 0 0 0 0 -0 -0 0 -0 0 0 0 -0 -1 -0 0 -0 0 -0 -1 -0 -0 -0 -0 -0 0 0 -0 0 0 0 0 -0 0 0 -0 -1 -0 nan
nan -0 -0 -0 -0 -0 -0 -0 -0 0 0 -0 -0 -0 -0 0 0 -0 -0 -0 -0 -0 -0 0 -0 -0 0 -0 -0 -1 -0 -0 -0 -0 -0 0 -0 0 -0 0 -0 0 -0 -1 -0 -0 nan
nan -0 -1 -0 -1 -0 -0 -0 -0 0 0 -0 -0 -0 -0 0 -0 -0 -0 -0 -0 -0 0 -0 -0 -1 -0 1 1 -1 -2 -0 -0 -0 -1 -0 -0 -0 0 -0 -0 -1 -0 -0 -0 -0 nan
nan -1 -0 -0 -1 -0 -0 -0 0 0 0 -0 -1 -0 -0 -0 -0 0 -0 -0 -0 0 0 0 0 -0 -3 -2 -1 -0 -0 0 -0 -0 -0 -0 -0 0 0 -0 -0 0 -0 -1 -0 -0 nan
nan -1 -1 -1 -1 -0 0 0 0 -0 -0 -0 -0 -0 0 -0 -1 -0 -0 -0 -0 0 0 0 1 3 -1 -1 0 0 0 0 0 0 -0 -0 -0 -0 0 0 0 -0 -0 -1 -1 0 nan
nan -1 -1 -0 -0 -0 -0 -0 0 -0 0 0 -0 -0 0 -0 -1 -0 -0 -0 -1 -0 0 0 2 1 0 -1 0 0 0 0 0 0 0 -0 -0 -0 0 -0 -1 -1 0 0 -0 -1 nan
nan -0 -0 -0 -0 -0 0 -0 -0 -0 0 0 0 0 0 -0 -1 -1 -1 -0 -0 -1 -0 -1 -0 0 -0 -0 -0 0 0 0 0 0 -0 -0 -0 -0 -0 0 -1 -0 -0 -0 -1 -0 nan
nan nan nan nan nan nan nan nan nan nan nan nan nan nan nan nan nan nan nan nan nan nan nan nan nan nan nan nan nan nan nan nan nan nan nan nan nan nan nan nan nan nan nan nan nan nan nan
Wind_Speed
15 11 19 23 21 19 22 21 19 19 26 24 22 23 21 19 17 14 13 11 10 4 3 4 3 4 3 4 5 11 12 13 10 7 11 15 20 17 8 19 36 22 20 25 30 28 29
14 14 14 18 24 23 20 21 21 19 22 28 24 23 23 21 19 16 15 11 10 7 5 2 2 3 3 2 6 9 9 10 13 19 15 12 23 36 24 7 7 17 28 26 23 23 19
14 15 16 15 19 29 24 22 21 20 20 25 28 24 24 23 21 18 15 11 11 7 6 4 2 3 1 1 5 6 7 9 12 15 19 12 14 2 24 21 32 29 20 20 10 8 19
16 18 18 17 18 21 24 26 21 20 23 18 24 28 25 25 23 19 15 11 12 7 7 7 3 2 1 3 5 5 4 6 8 12 15 15 23 21 12 36 16 14 7 5 5 5 3
18 19 18 19 18 18 26 30 24 23 21 23 19 29 27 26 24 20 16 13 11 9 7 6 2 2 2 3 6 6 6 7 10 16 14 14 10 26 25 16 6 1 4 8 4 5 4
19 18 18 19 18 18 18 23 26 23 23 21 22 27 30 27 25 21 17 13 9 9 8 6 7 1 4 5 5 4 7 8 11 16 18 14 9 5 3 3 5 6 5 3 6 1 5
21 20 19 19 20 18 18 19 25 26 25 23 20 16 31 28 25 21 17 11 7 3 11 6 4 3 10 9 6 4 7 8 6 8 4 8 8 4 4 6 4 8 8 7 2 2 7
22 22 20 20 19 20 19 19 21 29 27 24 21 24 25 29 26 23 20 14 10 4 4 7 5 8 9 7 3 3 4 4 4 4 2 7 5 1 8 6 12 9 15 4 2 6 4
22 22 22 21 19 20 20 20 19 23 28 26 26 23 16 28 26 27 26 22 13 10 3 7 9 10 8 8 5 2 4 7 6 5 4 6 3 12 12 8 15 4 7 8 6 5 5
24 23 22 22 20 19 19 19 19 18 23 25 26 20 12 31 30 31 30 19 13 9 4 5 7 8 11 10 3 6 8 5 4 6 5 6 2 9 7 6 4 5 3 5 8 4 3
24 24 23 21 21 19 19 18 17 17 18 22 23 25 17 20 32 38 30 20 13 8 1 3 7 9 11 7 15 5 4 3 6 4 4 3 2 5 5 2 3 4 6 5 3 4 4
24 23 22 21 20 20 17 17 16 17 18 19 22 28 16 20 28 35 31 23 12 6 8 5 6 7 7 5 2 8 5 10 11 9 9 3 4 3 2 3 1 8 5 7 4 3 3
22 22 22 21 20 19 17 15 15 16 17 17 21 25 13 24 27 31 28 22 4 5 2 6 5 6 7 5 3 3 5 5 6 5 2 5 4 5 4 6 5 6 6 3 4 4 5
25 23 22 21 20 19 18 15 14 15 15 15 17 18 21 30 25 24 29 4 4 6 6 4 5 11 6 6 1 3 6 4 3 6 4 5 2 3 3 3 6 3 5 5 6 3 3
24 24 24 23 20 19 19 16 14 13 14 13 13 18 24 28 23 32 27 9 9 6 8 8 10 5 4 4 6 5 4 8 5 5 7 5 2 4 5 3 3 3 2 3 6 3 3
24 24 24 24 22 20 19 17 15 13 13 10 10 11 21 28 29 30 8 12 5 4 7 12 6 6 6 10 5 6 8 4 6 2 4 6 5 2 1 3 10 2 2 3 3 2 4
27 27 25 24 23 23 20 20 16 15 12 9 6 2 5 16 29 14 12 5 3 6 15 5 5 5 6 7 6 5 9 1 3 4 9 5 4 3 1 3 7 2 2 7 5 4 5
32 30 29 28 26 24 22 21 19 17 12 10 4 1 7 16 22 8 8 7 3 4 9 3 5 5 6 6 4 4 8 3 11 17 7 4 5 3 2 3 4 3 6 6 4 5 2
34 33 32 31 30 27 25 23 22 21 18 15 5 5 8 19 7 8 6 9 7 3 4 3 3 4 2 6 6 4 6 3 19 8 9 8 1 3 5 5 3 4 4 5 6 3 6
37 36 35 34 32 31 29 27 25 25 22 19 7 2 4 5 8 14 13 16 13 4 1 5 5 6 6 4 6 5 3 3 13 6 9 8 3 6 7 5 5 5 5 5 5 4 4
39 38 37 36 35 34 33 31 29 29 27 24 10 5 6 4 9 12 13 19 17 7 8 7 3 7 8 5 3 5 4 4 2 10 6 4 3 4 3 2 4 5 8 11 7 6 6
42 41 40 39 39 38 36 36 33 33 31 28 11 6 7 1 11 15 7 17 25 18 2 3 5 7 5 8 7 8 9 5 6 5 4 1 1 1 1 3 6 4 8 14 11 4 6
44 44 43 41 41 41 40 39 38 38 39 20 22 11 7 4 3 16 12 9 23 26 21 5 11 6 4 7 9 20 6 16 13 8 4 6 5 3 3 1 0 7 12 15 7 6 8
46 46 45 45 43 43 44 42 42 43 46 27 26 16 2 2 6 10 19 20 16 25 8 5 20 7 12 32 32 24 23 16 13 9 9 6 6 2 3 3 1 7 6 13 14 6 14
43 44 46 47 45 45 46 46 45 46 47 39 26 25 10 4 8 5 16 15 17 18 20 8 10 18 41 23 5 6 5 4 2 1 5 6 5 2 4 3 6 5 6 8 8 9 19
36 41 44 45 46 47 48 48 48 48 48 48 34 32 19 3 10 7 18 27 12 12 3 2 10 47 17 6 4 4 5 5 4 3 4 5 5 4 2 3 6 6 2 10 9 6 11
31 37 42 42 44 46 49 50 50 50 50 50 42 36 24 7 14 12 15 22 26 18 9 4 20 7 11 3 3 3 3 5 6 8 6 3 2 5 1 2 8 7 5 13 5 7 9
33 35 40 43 43 47 49 51 51 52 52 53 48 43 38 19 21 14 19 29 26 34 12 16 8 2 4 4 4 4 3 5 4 5 7 6 6 4 3 1 8 11 8 9 6 8 9
39 41 43 45 45 46 50 52 52 53 53 53 44 46 37 22 10 14 23 26 43 43 40 28 11 13 9 5 1 4 3 2 6 4 3 5 7 6 9 7 6 19 8 16 8 11 10
Wind_Direction
291 300 267 256 252 271 260 256 247 241 241 240 237 235 231 226 232 235 253 254 270 276 301 324 329 340 327 1 3 358 13 17 37 44 81 112 89 88 87 100 84 96 104 110 119 116 115
289 291 304 272 257 257 261 257 249 242 240 237 236 235 234 230 227 230 240 252 265 274 261 261 286 347 337 20 350 354 14 45 71 70 73 95 101 110 120 99 92 135 118 119 116 113 121
284 285 288 288 277 255 255 259 250 248 241 234 235 235 231 230 229 228 230 244 255 269 268 263 237 338 12 93 7 356 26 53 78 80 71 117 108 124 109 85 118 121 107 105 106 129 116
285 286 279 280 283 272 252 261 249 255 246 249 228 232 232 228 229 229 227 224 252 251 256 257 254 283 152 49 14 15 43 79 94 85 87 99 127 96 95 121 118 109 87 113 253 121 27
281 286 282 274 278 281 253 246 256 247 249 243 232 233 229 228 226 225 228 225 233 246 238 248 194 251 200 85 49 40 81 91 94 90 92 129 128 106 118 124 106 81 139 125 152 256 177
279 285 288 268 266 272 271 256 247 253 247 254 236 228 225 225 223 219 226 225 219 231 234 214 220 199 208 122 56 69 97 93 105 119 97 96 86 82 63 112 160 154 125 76 138 251 75
273 275 283 272 265 265 266 263 253 250 250 250 248 244 215 217 217 216 216 215 215 217 210 226 216 146 146 117 73 89 107 90 87 78 65 29 73 112 222 241 180 121 113 120 99 121 85
271 273 277 278 268 264 264 264 258 244 252 251 254 239 213 210 209 211 209 202 192 166 196 198 170 178 157 137 117 78 101 83 73 72 40 38 79 355 86 91 117 103 117 107 85 196 86
266 266 270 272 273 261 263 267 261 254 248 250 249 246 223 200 205 210 208 195 187 174 184 199 189 173 164 161 127 100 126 109 87 61 44 107 41 110 102 81 102 53 145 168 150 139 53
261 264 263 265 269 262 262 268 253 257 250 249 249 250 249 187 206 206 207 181 182 169 71 214 206 202 173 135 111 136 131 113 73 134 103 79 69 100 79 84 96 96 183 142 129 106 185
259 260 260 263 261 266 263 270 251 255 258 251 254 242 235 213 199 201 191 179 172 166 124 187 153 166 165 152 137 142 116 119 128 118 97 242 90 85 86 130 103 156 124 124 107 95 92
259 256 257 258 261 259 266 268 252 252 258 255 254 240 243 220 185 194 182 180 163 57 240 172 143 158 129 133 123 126 128 103 104 65 53 87 62 74 131 49 105 123 86 47 52 72 27
257 256 255 257 260 255 259 260 256 251 254 254 253 253 237 220 180 195 184 170 75 166 230 176 177 168 136 146 123 114 139 113 137 108 68 23 353 344 60 84 63 78 69 11 3 7 221
258 260 258 258 258 253 250 251 256 247 251 261 253 264 234 200 172 185 179 103 144 186 199 149 142 129 137 134 100 122 118 132 83 97 104 132 318 351 5 97 161 101 134 146 194 204 264
260 260 259 259 258 252 246 244 246 250 248 260 265 262 240 189 181 179 176 191 196 191 152 134 101 146 133 165 128 126 152 171 160 162 130 122 333 318 60 86 78 170 75 145 103 21 32
258 258 258 256 254 249 242 237 238 244 245 252 266 266 241 203 187 183 183 207 192 206 129 145 138 186 153 169 132 128 179 197 137 152 146 200 92 314 257 69 44 104 109 74 15 134 270
257 254 253 252 249 246 238 236 230 233 237 233 255 230 238 210 203 183 202 188 205 218 154 148 134 141 154 152 146 163 180 47 142 111 91 134 100 262 82 188 179 41 57 53 105 110 161
259 257 255 251 248 244 238 231 226 225 220 213 190 145 180 181 182 205 202 170 229 190 184 162 110 99 141 126 125 137 180 214 166 143 129 189 123 141 170 353 170 107 154 133 123 255 161
260 258 255 252 247 242 236 228 219 218 211 197 197 220 194 206 190 210 151 207 226 170 191 153 123 119 137 139 115 114 145 166 161 144 157 178 119 89 356 352 332 210 163 116 109 94 197
261 258 254 250 244 239 234 226 216 213 207 191 165 169 205 251 203 197 189 194 203 240 204 183 113 94 102 88 35 142 126 148 166 131 155 126 141 156 180 193 146 174 168 162 133 125 180
257 253 249 245 242 235 229 223 213 209 205 185 181 235 173 177 219 181 177 175 195 219 217 192 69 156 139 118 101 126 105 100 107 144 129 115 147 161 198 168 138 174 174 177 189 184 164
254 251 247 242 237 232 225 220 212 207 201 192 177 184 173 135 197 190 171 195 189 199 216 196 148 157 148 151 175 182 138 153 181 176 126 45 117 123 146 176 203 232 200 194 207 206 278
253 249 245 239 233 229 222 218 209 205 195 194 202 193 195 175 176 181 197 196 192 191 227 265 160 120 120 163 139 138 125 148 169 141 133 127 129 101 240 211 94 308 213 189 189 190 169
245 242 240 236 229 224 219 215 211 206 203 194 194 198 161 195 193 207 182 196 206 200 173 207 178 117 122 120 108 90 76 85 115 87 127 121 115 112 160 75 284 238 180 191 199 204 212
237 232 230 229 224 219 215 212 210 207 205 196 194 195 195 229 197 179 199 198 198 210 207 182 188 157 135 106 77 69 14 53 19 49 111 138 122 125 151 204 289 264 171 146 172 259 209
229 222 220 221 217 214 211 209 208 207 205 203 203 200 203 132 234 208 192 195 188 180 198 225 174 145 147 87 87 135 175 166 176 121 109 78 76 117 158 189 220 239 246 155 141 290 210
223 215 216 215 212 209 207 206 205 205 204 204 202 208 205 219 235 200 196 191 185 165 173 141 161 173 147 101 101 141 202 166 161 164 171 124 47 148 154 240 285 234 152 146 108 237 175
227 219 214 211 210 206 205 204 202 203 203 203 205 209 211 224 247 232 223 197 176 173 168 166 132 222 62 80 122 184 137 208 135 177 174 155 150 176 116 127 273 180 144 170 214 165 168
227 223 215 211 209 206 203 201 200 201 202 202 207 211 206 210 245 236 240 218 203 184 181 171 154 158 157 95 68 114 119 139 160 208 160 194 187 180 185 210 233 190 213 204 184 172 173
Height
1533 1533 1533 1534 1536 1536 1537 1538 1540 1541 1543 1545 1547 1549 1550 1551 1554 1555 1557 1557 1557 1554 1554 1553 1551 1551 1551 1550 1551 1548 1546 1544 1542 1540 1537 1535 1536 1541 1552 1561 1565 1571 1583 1587 1591 1595 1596
1530 1530 1531 1531 1532 1533 1534 1536 1536 1538 1540 1541 1544 1546 1548 1550 1551 1553 1555 1556 1556 1554 1553 1551 1552 1551 1551 1551 1550 1548 1547 1545 1544 1542 1539 1537 1540 1546 1556 1563 1565 1580 1585 1591 1595 1597 1601
1529 1528 1528 1528 1528 1529 1530 1532 1533 1535 1536 1537 1540 1543 1545 1547 1550 1551 1553 1554 1555 1554 1554 1552 1552 1552 1550 1552 1549 1548 1548 1546 1545 1545 1545 1546 1545 1547 1557 1569 1577 1583 1586 1596 1599 1598 1603
1526 1526 1526 1525 1526 1525 1527 1528 1529 1531 1531 1532 1535 1539 1542 1545 1547 1550 1551 1552 1555 1554 1554 1553 1552 1552 1550 1550 1549 1548 1549 1548 1548 1547 1546 1545 1550 1550 1557 1571 1583 1588 1593 1602 1601 1598 1600
1524 1523 1523 1523 1523 1523 1523 1525 1525 1526 1527 1529 1531 1535 1538 1542 1546 1548 1551 1551 1552 1553 1553 1554 1552 1552 1550 1550 1549 1549 1548 1549 1550 1550 1548 1550 1551 1557 1567 1570 1585 1587 1595 1598 1603 1599 1600
1521 1521 1519 1520 1520 1520 1521 1521 1521 1522 1524 1526 1527 1530 1534 1539 1543 1546 1549 1550 1550 1552 1553 1553 1551 1553 1551 1549 1549 1550 1550 1550 1550 1551 1552 1553 1557 1564 1571 1574 1588 1588 1595 1600 1600 1601 1599
1518 1517 1517 1516 1517 1517 1518 1518 1519 1519 1521 1523 1522 1525 1529 1535 1540 1544 1548 1551 1553 1550 1551 1549 1548 1547 1548 1547 1550 1551 1551 1551 1552 1552 1557 1558 1565 1575 1571 1569 1570 1579 1587 1597 1601 1600 1601
1514 1513 1514 1513 1513 1514 1514 1515 1515 1516 1517 1518 1519 1521 1523 1530 1536 1541 1544 1545 1545 1548 1549 1547 1545 1546 1547 1546 1551 1552 1552 1554 1555 1560 1559 1567 1575 1571 1569 1570 1572 1579 1590 1600 1600 1599 1602
1509 1509 1510 1510 1510 1511 1511 1512 1511 1512 1513 1514 1516 1516 1516 1524 1532 1536 1538 1543 1545 1546 1547 1545 1545 1545 1545 1548 1549 1552 1554 1555 1559 1564 1566 1572 1573 1572 1570 1578 1578 1586 1592 1596 1597 1602 1605
1504 1505 1505 1506 1507 1507 1507 1507 1508 1508 1509 1511 1510 1512 1513 1521 1530 1530 1534 1543 1545 1546 1554 1544 1542 1542 1544 1542 1551 1552 1554 1557 1561 1570 1569 1575 1574 1574 1578 1581 1581 1591 1588 1591 1595 1603 1615
1499 1500 1501 1502 1503 1504 1504 1504 1504 1505 1506 1506 1506 1508 1511 1516 1518 1524 1536 1542 1544 1545 1569 1536 1537 1538 1540 1543 1547 1553 1554 1556 1562 1565 1570 1581 1578 1578 1581 1581 1581 1588 1587 1591 1596 1604 1610
1493 1495 1496 1497 1498 1499 1500 1500 1501 1502 1502 1503 1505 1504 1507 1511 1512 1526 1534 1540 1544 1560 1563 1536 1534 1535 1539 1542 1546 1549 1554 1556 1563 1569 1572 1577 1577 1578 1579 1581 1581 1585 1591 1599 1604 1610 1640
1488 1489 1491 1492 1494 1495 1497 1497 1498 1499 1500 1501 1500 1501 1503 1503 1509 1523 1531 1537 1553 1560 1528 1534 1534 1534 1535 1543 1547 1547 1553 1559 1567 1582 1582 1581 1583 1580 1580 1583 1584 1588 1602 1644 1637 1644 1643
1482 1484 1485 1487 1489 1491 1493 1494 1495 1496 1497 1497 1498 1499 1499 1505 1506 1520 1528 1535 1554 1526 1526 1523 1527 1532 1537 1540 1546 1549 1555 1562 1563 1569 1588 1598 1601 1586 1582 1585 1588 1590 1598 1635 1653 1644 1621
1476 1478 1480 1482 1484 1486 1488 1490 1492 1493 1494 1495 1495 1494 1497 1500 1505 1514 1522 1531 1514 1517 1514 1519 1527 1537 1537 1538 1543 1548 1554 1562 1560 1563 1582 1605 1597 1587 1584 1584 1587 1593 1606 1601 1619 1629 1643
1470 1473 1475 1477 1479 1482 1484 1487 1489 1490 1492 1493 1493 1492 1494 1496 1505 1509 1515 1509 1508 1506 1507 1512 1524 1528 1534 1537 1543 1549 1557 1555 1560 1561 1563 1586 1603 1590 1587 1586 1589 1590 1599 1614 1627 1652 1665
1463 1466 1469 1471 1474 1477 1480 1483 1486 1488 1490 1492 1493 1493 1493 1494 1495 1500 1501 1506 1504 1503 1506 1510 1515 1524 1525 1533 1540 1547 1553 1555 1555 1562 1562 1576 1590 1596 1590 1590 1602 1604 1614 1622 1633 1654 1666
1456 1459 1462 1465 1468 1471 1475 1478 1482 1485 1488 1491 1492 1494 1493 1493 1497 1498 1497 1501 1503 1504 1506 1506 1508 1515 1523 1528 1539 1544 1550 1549 1552 1553 1564 1570 1587 1604 1590 1589 1588 1592 1605 1614 1635 1651 1648
1447 1450 1453 1456 1460 1465 1469 1473 1478 1481 1484 1487 1489 1489 1489 1486 1493 1495 1499 1503 1504 1503 1505 1506 1508 1511 1518 1526 1540 1541 1547 1548 1550 1552 1559 1566 1589 1609 1598 1594 1591 1590 1598 1607 1626 1641 1643
1436 1440 1444 1447 1452 1457 1462 1467 1472 1476 1480 1486 1488 1488 1488 1486 1487 1494 1496 1499 1503 1503 1504 1506 1507 1511 1519 1528 1534 1544 1547 1551 1552 1552 1555 1560 1576 1582 1589 1578 1584 1594 1594 1601 1604 1638 1638
1426 1429 1433 1437 1442 1448 1453 1459 1465 1470 1475 1482 1483 1478 1480 1488 1491 1488 1491 1494 1504 1506 1504 1505 1508 1509 1515 1536 1538 1541 1545 1550 1553 1554 1556 1560 1576 1572 1571 1571 1575 1580 1586 1594 1603 1602 1604
1413 1417 1421 1426 1431 1437 1444 1450 1457 1463 1470 1476 1478 1479 1479 1480 1481 1484 1484 1490 1492 1503 1505 1504 1507 1510 1512 1523 1525 1538 1538 1544 1548 1554 1556 1561 1573 1568 1569 1570 1574 1576 1580 1584 1586 1588 1593
1398 1403 1407 1413 1419 1426 1434 1441 1448 1455 1464 1464 1472 1472 1473 1474 1474 1481 1481 1488 1488 1496 1503 1503 1504 1510 1514 1516 1519 1524 1530 1536 1538 1546 1555 1561 1572 1579 1575 1571 1574 1586 1570 1572 1575 1573 1574
1382 1387 1393 1399 1407 1415 1423 1431 1439 1447 1454 1460 1468 1474 1473 1476 1475 1472 1479 1487 1488 1491 1499 1502 1505 1506 1517 1517 1524 1530 1535 1541 1544 1547 1549 1562 1569 1578 1583 1579 1604 1554 1548 1550 1555 1556 1560
1367 1373 1379 1386 1394 1403 1413 1423 1431 1440 1449 1458 1464 1470 1473 1474 1472 1474 1478 1485 1491 1496 1500 1501 1503 1502 1512 1515 1531 1542 1551 1549 1552 1552 1553 1555 1567 1579 1582 1578 1560 1540 1543 1548 1554 1548 1543
1354 1361 1368 1375 1384 1393 1404 1414 1423 1433 1444 1454 1461 1467 1469 1471 1462 1469 1475 1477 1485 1493 1503 1501 1503 1503 1507 1517 1533 1544 1552 1548 1557 1555 1557 1560 1562 1574 1583 1575 1571 1544 1534 1536 1545 1559 1528
1346 1352 1359 1366 1375 1385 1395 1406 1416 1427 1437 1447 1455 1462 1467 1467 1465 1466 1468 1472 1480 1487 1496 1503 1506 1506 1505 1521 1539 1546 1550 1543 1553 1554 1559 1565 1569 1581 1601 1593 1558 1534 1533 1538 1555 1545 1526
1339 1345 1351 1359 1368 1377 1387 1398 1409 1420 1431 1440 1449 1457 1463 1465 1464 1463 1467 1468 1472 1479 1487 1494 1504 1504 1508 1522 1531 1540 1544 1543 1547 1544 1548 1556 1568 1579 1581 1586 1567 1526 1534 1540 1529 1524 1526
1330 1336 1343 1351 1360 1369 1380 1391 1403 1415 1425 1437 1444 1451 1460 1464 1459 1460 1459 1460 1469 1469 1480 1486 1487 1490 1497 1513 1524 1528 1537 1543 1539 1548 1539 1547 1541 1548 1547 1541 1523 1522 1521 1522 1522 1524 1526